Home   Weather   Nordhausen   Past weeks

Flag for Germany Past Weather in Nordhausen, Thuringia, Germany — Yesterday and Last 2 Weeks

37 °F


Feels Like: 37 °F
Forecast: 39 / 49 °F
Wind: 2 mph from North

Location: Erfurt-Bindersleben

Current Time: Oct 23, 2016 at 10:05:14 AM

Latest Report: Oct 23, 2016 at 9:20 AM

Visibility: 0 mi

Pressure: 29.95 "Hg

Humidity: 100%

Dew Point: 37 °F

Location of NordhausenLocation

Past Weather in Nordhausen — Graph


Nordhausen Temperature Yesterday

Maximum temperature yesterday: 45 °F (at 1:20 PM)
Minimum temperature yesterday: 39 °F (at 5:20 AM)
Average temperature yesterday: 42 °F

High & Low Weather Summary for the Past Weeks

High63 °F (Oct 16, 1:20 PM)100% (Oct 8, 5:50 PM)30.27 "Hg (Oct 8, 5:50 PM)
Low36 °F (Oct 23, 12:20 AM)62% (Oct 9, 2:20 PM)29.74 "Hg (Oct 15, 1:20 AM)
Average46 °F91%30.05 "Hg
* Reported Oct 8 8:20 AM — Oct 23 8:50 AM, Nordhausen, Weather by CustomWeather, © 2016

Note: Actual official high and low records may vary slightly from our data, if they occured in-between our weather recording intervals... More about our weather records


Nordhausen Weather History for the Previous 24 Hours

Scroll right to see more
Time TempWeatherWind HumidityBarometerVisibility
8:50 AM
Sun, Oct 23
37 °FFog.2 mph100%29.95 "Hg0 mi
8:20 AM37 °FFog.2 mph100%29.95 "Hg0 mi
7:50 AM37 °FFog.2 mph100%29.95 "Hg0 mi
7:20 AM37 °FFog.1 mph100%29.95 "Hg0 mi
6:50 AM37 °FFog.3 mph100%29.95 "Hg0 mi
6:20 AM37 °FFog.1 mph100%29.95 "Hg0 mi
5:50 AM37 °FFog.1 mph100%29.95 "Hg0 mi
5:20 AM37 °FFog.3 mph100%29.95 "Hg0 mi
4:50 AM37 °FFog.3 mph100%29.95 "Hg0 mi
4:20 AM39 °FFog.2 mph100%29.95 "Hg0 mi
3:50 AM39 °FFog.2 mph100%29.95 "Hg0 mi
3:20 AM39 °FFog.1 mph100%29.95 "Hg0 mi
2:50 AM37 °FFog.No wind100%29.95 "Hg2 mi
2:20 AM39 °FFog.2 mph100%29.95 "HgN/A
1:50 AM37 °FChilly.5 mph100%29.95 "HgN/A
1:20 AM39 °FFog.3 mph100%29.95 "Hg1 mi
12:50 AM37 °FFog.3 mph100%29.95 "Hg1 mi
12:20 AM36 °FSnow. Overcast.7 mph100%29.95 "HgN/A
11:50 PM
Sat, Oct 22
39 °FFog.3 mph100%29.95 "HgN/A
11:20 PM39 °FFog.1 mph100%29.95 "HgN/A
10:50 PM41 °FPassing clouds.3 mph93%29.95 "HgN/A
10:20 PM41 °FPassing clouds.3 mph93%29.98 "HgN/A
9:50 PM41 °FPassing clouds.3 mph100%29.95 "HgN/A
9:20 PM41 °FPassing clouds.2 mph100%29.95 "HgN/A
8:50 PM41 °FPassing clouds.3 mph100%29.95 "HgN/A
8:20 PM41 °FPassing clouds.3 mph100%29.95 "HgN/A
7:50 PM41 °FPassing clouds.3 mph93%29.95 "HgN/A
7:20 PM41 °FPassing clouds.3 mph93%29.95 "HgN/A
6:50 PM43 °FPassing clouds.3 mph93%29.92 "HgN/A
6:20 PM43 °FPassing clouds.3 mph93%29.92 "HgN/A
5:50 PM43 °FPartly sunny.2 mph93%29.92 "HgN/A
5:20 PM43 °FLight rain. Partly sunny.3 mph93%29.92 "HgN/A
4:50 PM45 °FLight rain. Broken clouds.8 mph81%29.92 "HgN/A
4:20 PM45 °FPartly sunny.3 mph81%29.92 "HgN/A
3:50 PM45 °FLight rain. Broken clouds.6 mph87%29.89 "HgN/A
3:20 PM45 °FBroken clouds.2 mph87%29.89 "HgN/A
2:50 PM45 °FBroken clouds.3 mph87%29.89 "HgN/A
2:20 PM45 °FLight rain. Broken clouds.2 mph87%29.89 "HgN/A
1:50 PM45 °FLight rain. Broken clouds.5 mph87%29.89 "HgN/A
1:20 PM45 °FLight rain. Broken clouds.7 mph87%29.89 "HgN/A
12:50 PM43 °FBroken clouds.8 mph87%29.89 "HgN/A
12:20 PM43 °FBroken clouds.6 mph93%29.89 "HgN/A
11:50 AM43 °FLight rain. Partly sunny.8 mph93%29.89 "HgN/A
11:20 AM41 °FDrizzle. Partly sunny.7 mph93%29.89 "HgN/A
10:50 AM41 °FDrizzle. Low clouds.9 mph93%29.89 "HgN/A
10:20 AM41 °FDrizzle. Partly sunny.6 mph93%29.89 "HgN/A
Weather by CustomWeather, © 2016

See weather overviewHow to use our weather pages